Temperature
19 19 19 19 19 19 19 19 19 19 19 19 19 19 19 18 19 19 18 18 18 18 18 18 18 18 18 18 18 18 18 18 18 18 18 18 18 18 18 18 18 18 18
19 19 19 19 19 19 19 19 19 19 19 19 19 19 19 18 18 19 18 18 18 18 18 18 18 18 18 18 18 18 18 18 18 18 18 18 18 18 18 18 18 18 18
19 19 19 19 19 19 19 19 19 19 19 19 19 19 19 18 18 18 18 18 18 18 18 18 18 18 18 18 18 18 18 18 18 18 18 18 18 18 18 18 18 18 17
19 19 19 19 19 19 19 19 19 19 19 19 19 19 19 19 19 19 18 18 18 18 18 18 18 18 18 18 18 18 18 18 18 18 18 18 18 18 18 18 18 17 17
19 19 19 19 19 19 19 19 19 19 19 19 19 19 19 19 19 19 18 18 18 18 18 18 18 18 18 18 18 18 18 18 18 18 18 18 18 18 18 18 18 17 17
19 19 19 19 19 19 19 19 19 19 19 19 19 19 19 19 19 18 18 18 18 18 18 18 18 18 18 18 18 18 18 18 18 18 18 18 18 18 18 18 18 18 17
19 19 19 19 19 19 19 19 19 19 19 19 18 18 18 18 18 18 18 18 18 18 18 18 18 18 18 18 18 18 18 18 18 18 18 18 18 18 18 18 18 18 17
19 19 19 19 19 19 19 19 19 19 18 18 18 18 18 18 18 18 18 18 18 18 18 18 18 18 18 18 18 18 18 18 18 18 18 18 18 18 18 18 17 17 17
19 19 19 19 19 19 19 19 19 19 18 18 18 18 18 18 18 18 18 18 18 18 18 18 18 18 18 18 18 18 18 18 18 18 18 18 18 18 18 17 17 17 17
19 19 19 19 19 19 19 19 19 19 18 18 18 18 18 18 18 18 18 18 18 18 18 18 18 18 18 18 18 18 18 18 18 18 18 18 18 18 18 18 17 17 17
19 19 19 19 19 19 19 19 19 18 18 18 19 19 18 18 18 18 18 18 18 18 18 18 18 18 18 18 18 18 18 18 18 18 18 18 18 18 18 18 17 17 17
19 19 19 19 19 19 19 19 19 19 18 19 19 19 19 18 18 18 18 18 18 18 18 18 18 18 18 18 18 18 18 18 18 18 18 18 18 18 18 18 17 17 17
20 19 19 19 19 19 19 19 19 19 19 19 19 19 19 18 18 18 18 18 18 18 18 18 18 18 18 18 18 18 18 18 18 18 18 18 18 18 18 18 18 17 17
20 20 19 19 19 19 19 19 19 19 19 19 19 19 18 18 18 18 18 18 18 18 18 18 18 18 18 18 18 18 18 18 18 18 18 18 18 18 18 18 18 17 17
20 20 19 19 19 19 19 19 19 19 19 19 19 19 19 18 18 18 18 18 18 18 18 18 18 18 18 18 18 18 18 18 18 18 18 18 18 18 18 18 17 17 17
20 20 20 20 19 19 19 19 19 19 19 19 19 19 19 18 18 18 18 18 18 18 18 18 18 18 18 18 18 18 18 18 18 18 18 18 18 18 18 18 17 17 17
20 20 20 20 20 19 19 19 19 19 19 19 19 19 19 18 18 18 18 18 18 18 18 18 18 18 18 18 18 18 18 18 18 18 18 18 18 18 18 18 18 17 17
21 20 20 20 20 19 19 19 19 19 19 19 19 18 18 18 18 18 18 18 18 18 18 18 18 18 18 18 18 18 18 18 18 18 18 18 18 18 18 18 18 18 17
21 21 20 20 20 19 19 19 19 19 19 19 18 18 18 18 18 18 18 18 18 18 18 18 18 18 18 18 18 18 18 18 18 18 18 18 18 18 18 18 18 18 18
21 21 20 20 20 20 19 19 19 19 19 19 18 18 18 18 18 18 18 18 18 18 18 18 18 18 18 18 18 18 18 18 18 18 18 18 18 18 18 18 18 18 18
21 21 21 20 20 20 19 19 19 19 19 19 18 18 18 18 18 18 18 18 18 18 18 18 18 18 18 18 18 18 18 18 18 18 18 18 18 18 18 18 17 17 17
21 21 21 20 20 20 20 19 19 19 19 19 18 18 18 18 18 18 18 18 18 18 18 18 18 18 18 18 18 18 18 18 18 18 18 18 18 18 17 17 17 17 17
22 21 21 21 20 20 20 19 19 19 19 18 18 18 18 18 18 18 18 18 18 18 18 18 18 18 18 18 17 17 17 17 17 17 17 17 17 17 17 17 17 17 17
22 22 21 21 20 20 20 19 19 19 19 19 18 18 18 18 18 18 18 18 18 18 18 18 18 18 18 17 17 17 17 17 17 17 17 17 17 17 17 17 17 17 17
22 22 21 21 20 20 20 19 19 19 19 19 18 18 18 18 18 18 18 18 18 18 18 17 17 17 17 17 17 17 17 17 17 17 17 17 17 17 17 17 17 17 17
22 22 21 21 21 20 20 20 19 19 19 19 18 18 18 18 18 18 18 17 17 17 17 17 17 17 17 17 17 17 17 17 17 17 17 17 17 17 17 17 17 17 17
Wind_Speed
2 4 8 10 11 12 13 14 14 15 15 16 16 16 16 16 15 15 14 13 13 12 11 11 10 10 10 10 10 11 11 10 9 9 9 8 9 9 10 10 11 10 12
5 6 9 10 11 12 13 13 14 14 15 15 15 15 15 15 14 13 13 12 12 11 11 10 9 9 10 10 10 10 10 9 9 9 8 8 8 9 9 10 10 9 11
6 7 9 10 12 12 13 13 12 13 14 14 14 14 14 13 13 12 12 11 11 11 10 10 9 10 10 9 10 9 8 8 7 8 7 6 7 8 9 9 10 11 11
6 7 9 11 12 12 12 12 11 12 14 14 14 13 13 12 12 11 11 11 11 10 9 9 8 9 9 8 8 8 7 7 6 6 5 5 6 8 9 9 10 10 10
6 6 9 12 12 13 12 12 11 12 13 13 13 12 12 11 11 10 9 10 10 9 9 8 8 8 8 7 7 7 6 6 6 5 5 5 6 7 8 9 9 9 10
5 6 9 13 13 13 12 11 11 11 11 12 11 11 10 10 10 9 9 9 8 8 8 7 7 7 6 6 6 5 5 6 5 4 4 5 5 6 7 8 9 9 9
4 4 8 12 12 12 11 11 10 10 10 10 10 9 9 8 8 8 8 8 7 7 6 6 6 6 5 5 5 4 4 5 5 5 4 4 5 6 7 8 8 9 9
5 5 7 11 12 11 10 10 10 9 9 9 9 8 8 7 7 7 7 7 7 6 5 5 5 5 4 4 4 3 3 4 5 5 4 5 6 7 7 7 7 9 9
5 5 5 7 8 9 9 9 9 8 8 8 7 7 7 6 6 6 6 6 6 5 5 4 4 4 3 3 2 2 2 3 4 4 4 5 6 7 7 7 7 8 9
4 4 4 5 5 5 6 7 8 7 7 7 6 6 5 4 4 4 4 4 4 4 4 4 3 3 2 2 2 1 2 3 4 4 4 4 6 7 7 8 8 8 9
3 2 3 3 4 4 4 5 5 5 5 4 4 4 3 2 2 2 3 3 3 3 3 3 2 2 1 1 1 1 2 3 4 3 3 5 7 7 7 8 8 8 9
4 3 2 3 3 3 3 3 2 2 2 2 1 1 2 1 1 1 2 2 2 2 2 2 1 1 1 1 1 1 1 2 2 3 3 5 6 7 7 8 8 8 8
5 3 3 3 3 2 2 2 2 1 1 1 1 1 1 1 0 1 0 1 1 0 0 0 1 1 1 0 0 1 1 2 2 2 3 4 5 5 6 7 7 7 8
5 4 3 4 3 2 2 1 2 1 1 0 0 1 1 0 0 0 0 1 0 0 1 0 0 1 0 1 1 1 1 2 2 2 3 4 4 5 6 6 7 8 8
6 5 5 4 4 3 2 1 1 1 1 1 0 1 2 1 1 0 0 0 0 0 1 1 1 1 0 1 1 2 2 2 2 1 1 2 3 4 5 6 6 7 7
8 7 5 5 5 4 3 2 1 1 1 1 1 2 3 3 1 0 0 1 1 1 2 2 2 1 1 1 1 1 1 1 2 1 1 2 2 3 4 4 5 6 7
8 7 6 6 5 5 4 3 2 1 1 1 2 2 3 3 2 1 1 1 2 1 1 1 1 1 1 0 0 1 1 1 2 2 2 2 2 3 4 4 5 5 6
7 7 6 6 6 5 4 2 2 1 1 1 1 1 2 2 2 1 1 1 1 1 1 1 1 1 0 0 0 1 1 1 2 2 2 2 2 3 3 4 5 5 5
8 7 7 5 6 6 4 3 2 1 1 1 1 1 2 2 2 2 1 1 1 1 1 1 1 1 1 1 1 0 1 1 2 2 2 2 3 3 3 3 4 4 5
7 7 7 5 5 5 3 2 1 1 1 1 1 2 2 2 2 2 1 0 1 1 0 1 1 1 1 1 0 0 1 1 1 1 2 2 2 3 3 3 3 3 4
7 7 7 6 5 5 3 2 2 1 1 1 1 1 2 2 2 2 1 0 0 1 1 1 1 1 1 1 1 1 2 1 1 1 1 1 2 3 3 3 3 3 3
9 8 8 7 7 6 4 3 2 2 1 1 0 0 1 2 2 2 1 1 1 1 1 1 2 1 0 1 2 1 1 2 2 1 1 1 2 2 2 3 3 4 4
10 10 10 8 7 6 5 3 3 2 2 1 1 0 1 1 2 2 2 1 1 1 1 1 2 3 2 1 1 2 2 2 2 2 1 1 1 1 2 3 3 4 4
10 9 8 8 7 6 6 5 5 3 3 2 2 1 1 0 1 2 2 1 1 1 1 1 1 2 3 1 1 0 1 2 1 1 2 2 2 2 2 2 3 3 3
9 8 8 7 7 6 6 6 5 4 3 2 1 1 0 0 0 1 2 1 1 1 1 1 1 2 2 2 2 1 1 1 1 1 2 2 2 2 2 3 2 3 3
8 8 7 8 6 6 6 6 6 6 4 3 2 1 1 0 1 1 1 1 1 1 1 1 2 2 2 2 2 2 2 2 2 2 2 2 2 2 2 2 2 3 4
Wind_Direction
159 157 139 131 129 126 122 121 121 122 124 125 127 128 128 129 129 129 132 134 134 132 128 123 122 121 121 122 120 120 122 123 125 125 126 127 125 123 122 120 120 119 125
143 147 142 137 132 128 125 124 126 128 129 130 130 130 131 132 132 132 132 134 134 131 127 124 123 126 123 122 121 120 122 124 126 127 127 127 128 129 128 127 127 128 131
133 142 144 140 134 130 128 127 128 131 132 132 133 133 134 135 135 134 135 136 134 132 129 125 123 128 127 126 126 126 124 125 131 130 127 123 130 138 138 137 138 137 137
132 137 143 140 136 133 131 130 129 133 133 133 135 136 138 139 139 138 141 141 139 136 134 132 130 131 131 131 131 131 131 130 132 133 129 136 140 144 146 145 144 144 143
123 136 149 142 139 136 133 131 129 133 135 135 136 136 137 139 141 143 144 143 143 143 143 142 138 137 137 136 136 137 139 139 139 134 137 143 146 152 154 153 150 151 150
118 142 153 144 142 138 136 133 132 133 137 137 136 136 139 141 143 143 142 141 143 147 148 144 138 136 139 143 146 146 150 149 140 129 136 152 158 163 163 162 158 158 158
114 130 150 144 141 138 137 136 134 137 140 138 138 140 142 144 146 147 146 145 146 149 150 144 140 136 137 139 137 142 153 158 145 135 148 166 170 172 170 166 166 165 164
109 106 129 137 138 138 139 139 138 137 141 141 138 140 146 148 150 149 151 151 150 150 149 148 146 147 146 139 135 140 143 152 149 151 163 175 180 180 179 177 174 175 174
99 98 108 126 133 137 140 142 143 143 143 142 142 142 144 145 147 147 149 150 153 155 155 155 152 148 150 157 157 164 160 160 155 163 175 181 186 190 191 190 188 182 178
93 95 103 111 113 117 132 143 148 150 148 147 147 147 144 144 143 146 148 152 157 160 161 162 163 166 167 173 183 193 161 149 159 175 190 192 194 197 197 195 191 189 189
125 101 108 106 108 115 133 152 153 152 148 147 145 150 143 124 133 150 166 172 177 181 180 181 180 177 163 146 124 105 119 146 158 178 202 206 203 204 202 198 193 196 197
166 161 139 131 127 130 144 127 123 125 112 100 98 95 97 103 160 156 173 182 201 205 205 197 207 163 71 57 72 81 132 162 172 190 206 211 211 210 208 201 197 202 203
176 171 160 156 148 143 129 116 115 114 98 87 117 146 91 55 11 21 348 304 334 254 222 190 357 63 61 354 87 111 166 185 187 200 209 209 209 207 209 206 204 208 208
177 189 179 168 159 162 152 132 131 134 127 159 260 158 141 158 33 44 349 327 345 132 126 116 136 87 51 258 201 185 183 177 191 209 222 211 207 212 216 211 208 211 214
185 195 189 176 170 164 150 167 152 166 177 193 201 156 166 193 212 198 332 354 285 180 171 164 184 180 223 257 231 194 187 189 209 222 225 217 216 219 221 217 215 215 218
191 195 187 181 178 169 165 166 180 194 194 181 212 210 200 201 198 192 290 285 271 237 203 193 209 205 225 225 252 214 193 182 191 199 230 233 215 212 212 217 225 227 223
188 187 183 181 174 174 177 177 173 195 195 210 230 216 204 202 195 185 219 269 267 245 204 186 189 164 199 197 233 232 202 200 200 205 219 221 224 219 218 226 231 229 226
179 179 185 185 172 176 178 174 178 195 187 214 225 211 212 213 196 176 209 259 261 187 164 166 156 147 121 166 243 257 239 232 222 215 216 224 231 235 235 233 235 235 231
181 177 180 181 171 175 173 170 173 180 182 207 205 204 228 224 186 171 215 258 213 149 172 190 138 159 168 212 240 237 231 240 243 222 213 221 228 237 238 236 236 232 235
176 174 177 177 171 162 150 138 131 123 180 193 201 211 219 218 190 164 190 239 162 130 87 182 169 146 177 195 210 349 310 273 287 256 244 242 236 238 239 239 235 237 242
171 174 178 176 174 158 150 154 159 186 197 188 204 196 197 197 179 167 194 217 163 156 185 179 155 114 50 91 83 24 352 348 273 267 262 260 256 241 227 227 227 232 246
180 182 183 183 177 172 172 166 164 155 164 166 73 85 190 196 192 187 180 186 176 153 113 125 137 137 129 122 126 97 358 337 332 315 283 260 266 241 229 230 226 231 235
188 190 193 188 180 176 165 139 116 84 61 64 72 138 243 207 199 184 168 156 148 155 180 191 173 166 179 177 125 140 152 239 301 325 306 292 273 243 245 239 234 236 237
196 191 186 181 178 173 163 159 158 166 180 199 193 206 257 198 178 179 165 155 145 156 183 215 183 178 157 176 194 157 159 163 171 302 312 305 292 253 254 251 251 244 241
187 183 180 173 175 172 167 167 165 167 176 168 150 160 223 348 166 192 175 165 161 172 197 200 158 169 166 173 177 169 151 123 164 188 275 302 309 279 261 254 249 248 242
173 175 173 172 181 175 170 170 170 171 170 160 163 182 237 287 272 245 196 185 196 192 207 210 194 185 186 173 175 171 170 176 198 192 228 259 276 287 281 267 257 253 245
Height
1506 1507 1508 1509 1511 1512 1513 1514 1515 1517 1518 1520 1522 1524 1526 1528 1530 1531 1533 1534 1535 1537 1538 1539 1540 1541 1542 1543 1544 1545 1546 1548 1549 1550 1551 1552 1553 1554 1555 1556 1557 1557 1558
1507 1508 1510 1511 1512 1513 1515 1516 1517 1519 1520 1522 1524 1526 1528 1530 1531 1533 1534 1536 1537 1538 1539 1540 1541 1542 1543 1544 1545 1546 1548 1549 1550 1551 1552 1553 1554 1555 1556 1557 1558 1559 1560
1508 1510 1511 1513 1514 1515 1517 1518 1519 1520 1522 1524 1526 1528 1530 1531 1533 1535 1536 1538 1539 1540 1540 1541 1542 1543 1544 1545 1546 1547 1549 1550 1551 1552 1553 1554 1555 1556 1557 1558 1559 1560 1561
1510 1511 1513 1514 1516 1517 1519 1520 1521 1522 1524 1526 1528 1530 1532 1533 1535 1536 1538 1539 1540 1541 1542 1543 1543 1544 1546 1547 1548 1549 1550 1551 1552 1553 1554 1555 1555 1557 1558 1559 1560 1561 1562
1511 1513 1514 1516 1518 1519 1521 1522 1523 1524 1526 1528 1530 1532 1533 1535 1536 1538 1539 1540 1541 1542 1543 1544 1545 1546 1547 1548 1549 1550 1550 1551 1553 1554 1555 1555 1556 1557 1558 1559 1560 1561 1562
1513 1513 1514 1517 1519 1521 1523 1524 1525 1527 1528 1530 1532 1534 1535 1537 1538 1539 1540 1541 1542 1543 1544 1545 1546 1547 1548 1549 1550 1551 1552 1552 1553 1554 1555 1556 1557 1558 1559 1560 1561 1562 1563
1514 1513 1513 1518 1521 1523 1525 1527 1528 1528 1530 1532 1534 1535 1536 1538 1539 1540 1541 1542 1543 1544 1545 1546 1547 1548 1549 1550 1551 1552 1552 1553 1554 1555 1556 1557 1557 1558 1559 1560 1561 1562 1563
1517 1516 1516 1521 1524 1526 1528 1529 1530 1531 1533 1534 1535 1536 1538 1539 1540 1541 1543 1544 1544 1545 1546 1547 1548 1549 1550 1551 1552 1552 1553 1554 1555 1556 1556 1557 1558 1559 1559 1560 1561 1562 1563
1521 1521 1522 1525 1527 1528 1530 1532 1533 1534 1535 1536 1537 1539 1540 1541 1542 1542 1544 1544 1545 1546 1547 1548 1549 1550 1551 1551 1552 1553 1554 1554 1555 1556 1557 1557 1558 1558 1559 1560 1561 1562 1563
1524 1525 1526 1528 1530 1531 1532 1534 1535 1536 1537 1538 1539 1540 1541 1542 1543 1544 1545 1546 1547 1548 1548 1549 1550 1551 1551 1552 1553 1553 1554 1555 1555 1556 1557 1557 1558 1558 1559 1560 1561 1562 1563
1526 1528 1529 1531 1532 1533 1535 1536 1537 1538 1539 1540 1541 1542 1543 1544 1544 1545 1546 1547 1547 1548 1549 1550 1551 1552 1552 1553 1554 1554 1554 1555 1556 1556 1557 1557 1558 1558 1559 1559 1560 1561 1562
1528 1530 1531 1533 1534 1535 1537 1538 1539 1540 1541 1542 1543 1543 1544 1545 1545 1546 1547 1547 1548 1549 1550 1551 1551 1552 1553 1554 1554 1554 1555 1555 1556 1556 1556 1557 1557 1558 1558 1558 1560 1561 1562
1529 1531 1533 1534 1536 1537 1538 1540 1541 1542 1543 1543 1544 1545 1545 1546 1546 1547 1547 1548 1549 1549 1550 1551 1552 1553 1553 1554 1554 1555 1555 1555 1556 1556 1556 1557 1557 1557 1558 1558 1559 1560 1561
1530 1532 1534 1536 1537 1538 1540 1541 1542 1543 1544 1545 1545 1546 1546 1546 1547 1547 1547 1548 1549 1550 1550 1551 1552 1553 1553 1554 1554 1555 1555 1556 1556 1556 1556 1557 1557 1557 1557 1558 1559 1559 1560
1531 1533 1534 1536 1538 1539 1541 1542 1543 1544 1545 1545 1546 1546 1547 1547 1547 1547 1548 1548 1549 1550 1550 1551 1552 1552 1553 1554 1554 1555 1555 1555 1556 1556 1556 1556 1556 1557 1557 1557 1558 1558 1559
1531 1533 1535 1537 1538 1540 1541 1542 1543 1544 1545 1546 1546 1547 1547 1547 1547 1548 1548 1549 1549 1550 1550 1551 1551 1552 1552 1553 1554 1554 1555 1555 1555 1556 1556 1556 1556 1556 1556 1557 1557 1557 1558
1531 1533 1535 1537 1538 1540 1541 1542 1543 1544 1545 1546 1546 1547 1547 1547 1547 1548 1548 1549 1549 1549 1550 1550 1550 1551 1552 1552 1553 1554 1554 1554 1555 1555 1555 1555 1555 1555 1556 1556 1556 1557 1557
1531 1533 1535 1536 1538 1539 1541 1542 1543 1544 1545 1546 1546 1547 1547 1547 1548 1548 1548 1549 1549 1549 1549 1550 1550 1550 1551 1552 1552 1553 1553 1554 1554 1554 1555 1555 1555 1555 1555 1555 1555 1556 1556
1531 1533 1534 1536 1537 1539 1541 1542 1543 1544 1545 1546 1546 1546 1547 1547 1547 1548 1548 1548 1549 1549 1549 1549 1549 1550 1550 1551 1551 1552 1552 1553 1553 1554 1554 1554 1554 1554 1554 1554 1555 1555 1555
1530 1532 1534 1536 1537 1539 1540 1541 1542 1543 1544 1545 1546 1546 1547 1547 1547 1547 1548 1548 1548 1548 1548 1548 1549 1549 1549 1550 1550 1550 1551 1552 1552 1553 1553 1553 1553 1553 1553 1553 1554 1554 1554
1529 1531 1533 1534 1536 1538 1539 1540 1541 1542 1543 1544 1545 1546 1546 1547 1547 1547 1547 1547 1547 1547 1548 1548 1548 1548 1548 1549 1549 1549 1550 1550 1551 1551 1551 1552 1552 1552 1552 1552 1552 1552 1553
1527 1529 1531 1533 1535 1537 1538 1540 1541 1542 1543 1543 1544 1545 1545 1546 1546 1546 1546 1546 1547 1547 1547 1547 1547 1547 1547 1548 1548 1549 1549 1550 1549 1549 1550 1550 1550 1550 1550 1551 1551 1551 1551
1524 1527 1529 1531 1533 1535 1537 1539 1540 1541 1542 1543 1543 1544 1544 1545 1545 1545 1545 1546 1546 1546 1546 1546 1546 1546 1546 1547 1548 1548 1548 1548 1548 1548 1548 1548 1548 1549 1549 1549 1549 1549 1549
1522 1525 1527 1530 1532 1534 1536 1537 1538 1539 1540 1541 1542 1542 1543 1543 1544 1544 1544 1544 1544 1545 1545 1545 1544 1545 1545 1546 1546 1547 1548 1547 1547 1546 1547 1547 1547 1547 1547 1547 1547 1547 1547
1519 1522 1525 1528 1530 1532 1534 1535 1537 1538 1539 1540 1540 1541 1542 1542 1542 1542 1543 1543 1543 1543 1543 1543 1543 1543 1544 1544 1544 1545 1545 1545 1545 1545 1544 1545 1545 1545 1545 1545 1545 1545 1545
1517 1520 1523 1525 1528 1530 1532 1534 1535 1536 1537 1538 1538 1539 1540 1540 1540 1541 1541 1541 1541 1542 1542 1542 1541 1541 1542 1542 1542 1542 1543 1543 1543 1543 1543 1542 1542 1543 1543 1543 1543 1543 1543